Back to catalog

YAM-6

AliveAmateur RadioSSO
NORAD 59126·PAYLOAD·🇺🇸 United States

Launched Mar 4, 2024 from Vandenberg Space Force Base

Loading…

Next Passes (next 24 hours)

TLE

FreshSource: Space-Track

Epoch: Sep 14, 2026, 09:24 UTC

1 59126U 24043AE  26257.39167438  .00007142  00000-0  19046-3 0  9996
2 59126  97.5695  41.1707 0006600 269.8723  90.1765 15.38456661141026

Track YAM-6 in real time with AllMySat

Download on the App Store